Weather in Ilgoshchi

Russia / Tver Oblast     57°11′50″N   36°29′38″E
temp.,
°C
wind,
m/s
gust,
m/s
humid.,
%
clouds,
%
prec.,
mm/h
press.,
hPa
HPBL,
m
10 may, mon
mon1000:00+3nnw35740 0.0 102278
03:00+1nnw24710 0.0 102559
06:00+3n236716 0.0 102695
09:00+9n23454 0.0 1027579
12:00+13n23365 0.0 10271251
15:00+15nne22335 0.0 10271491
18:00+14ene11425 0.0 1027918
21:00+7ese22665 0.0 102914
11 may, tue
tue1100:00+6ese117110 0.0 102910
03:00+5e116759 0.0 103010
06:00+6e226782 0.0 103056
09:00+12ene245159 0.0 1030482
12:00+16e4541100 0.0 1029960
15:00+18e344083 0.0 10281077
18:00+16ene3654100 0.0 1028403
21:00+11e367964 0.0 102889
12 may, wed
wed1200:00+9e25865 0.0 102880
03:00+9e22940 0.0 102833
06:00+10e25942 0.0 1028137
09:00+17ene467298 0.0 1027502
12:00+21e58605 0.1 10251257
15:00+22e6951100 0.1 10232026
18:00+20e611655 0.7 10221338
21:00+15ese4128261 1.3 1021485
13 may, thu
thu1300:00+13ese399076 0.0 1022302
03:00+12e379585 0.0 1021204
06:00+12ene389349 0.0 1020257
09:00+16ese5107898 0.2 1019812
12:00+14sse4993100 2.6 1019595
15:00+14se3694100 7.5 1018412
18:00+16se35800 0.1 1018686
21:00+12ese259591 0.3 1018100
14 may, fri
fri1400:00+11se259770 0.0 1019103
03:00+10ese2397100 0.0 101961
06:00+11ese2696100 0.0 1019165
09:00+16ese357918 0.0 1018465
12:00+20se465689 0.0 10171541
15:00+21se565593 0.0 10151739
18:00+20ese4867100 0.2 1013472
21:00+16sse41291100 3.0 1013526